| time (UTC) | temp C | wind direction | speed KPH | gust KPH | rain 1hr cm | rain 24hr cm | rain mn cm | humidity % | barometer mb |
| 20260507050011 | 18 | 203 | 0.0 | 4.8 | 0.00 | 0.10 | 0.00 | 85 | 1013.9 |
| 20260507045504 | 18 | 315 | 0.0 | 9.7 | 0.00 | 0.10 | 0.10 | 85 | 1013.8 |
| 20260507045004 | 18 | 10 | 0.0 | 9.7 | 0.00 | 0.10 | 0.10 | 85 | 1013.7 |
| 20260507044530 | 18 | 334 | 0.0 | 8.0 | 0.00 | 0.10 | 0.10 | 86 | 1013.8 |
| 20260507044003 | 18 | 328 | 1.6 | 8.0 | 0.00 | 0.10 | 0.10 | 85 | 1013.8 |
| 20260507043503 | 18 | 300 | 0.0 | 6.4 | 0.00 | 0.10 | 0.10 | 85 | 1013.8 |
| 20260507043015 | 18 | 326 | 0.0 | 6.4 | 0.00 | 0.10 | 0.10 | 85 | 1013.7 |
| 20260507042505 | 18 | 345 | 0.0 | 8.0 | 0.00 | 0.10 | 0.10 | 86 | 1013.7 |
| 20260507042005 | 18 | 348 | 0.0 | 9.7 | 0.00 | 0.10 | 0.10 | 85 | 1013.8 |
| 20260507041515 | 18 | 338 | 0.0 | 9.7 | 0.00 | 0.10 | 0.10 | 85 | 1013.7 |
| 20260507041004 | 18 | 329 | 1.6 | 9.7 | 0.00 | 0.10 | 0.10 | 85 | 1013.6 |
| 20260507040505 | 19 | 331 | 1.6 | 6.4 | 0.00 | 0.10 | 0.10 | 85 | 1013.7 |
| 20260507040014 | 19 | 265 | 0.0 | 4.8 | 0.00 | 0.10 | 0.10 | 85 | 1013.9 |
| 20260507035504 | 19 | 283 | 0.0 | 6.4 | 0.00 | 0.10 | 0.10 | 85 | 1013.8 |
| 20260507035002 | 19 | 318 | 0.0 | 6.4 | 0.00 | 0.10 | 0.10 | 85 | 1013.7 |
| 20260507034513 | 19 | 327 | 1.6 | 6.4 | 0.00 | 0.10 | 0.10 | 84 | 1013.8 |
| 20260507034007 | 19 | 326 | 0.0 | 4.8 | 0.00 | 0.10 | 0.10 | 85 | 1013.9 |
| 20260507033503 | 19 | 322 | 0.0 | 6.4 | 0.00 | 0.10 | 0.10 | 85 | 1013.8 |
| 20260507033010 | 19 | 314 | 1.6 | 6.4 | 0.00 | 0.10 | 0.10 | 84 | 1013.9 |
| 20260507032504 | 19 | 335 | 1.6 | 6.4 | 0.00 | 0.10 | 0.10 | 84 | 1013.6 |
| 20260507032008 | 20 | 323 | 0.0 | 4.8 | 0.00 | 0.10 | 0.10 | 85 | 1013.4 |
| 20260507031516 | 20 | 326 | 0.0 | 3.2 | 0.00 | 0.10 | 0.10 | 85 | 1013.4 |
| 20260507031007 | 20 | 334 | 0.0 | 3.2 | 0.00 | 0.10 | 0.10 | 85 | 1013.3 |
| 20260507030506 | 20 | 323 | 0.0 | 6.4 | 0.00 | 0.10 | 0.10 | 85 | 1013.1 |
| 20260507030016 | 20 | 324 | 0.0 | 14.5 | 0.00 | 0.10 | 0.10 | 85 | 1013.0 |
| 20260507025506 | 20 | 346 | 1.6 | 14.5 | 0.00 | 0.10 | 0.10 | 84 | 1013.0 |
| 20260507025003 | 20 | 32 | 0.0 | 11.3 | 0.00 | 0.10 | 0.10 | 84 | 1012.6 |
| 20260507024519 | 20 | 332 | 1.6 | 11.3 | 0.00 | 0.10 | 0.10 | 84 | 1012.4 |
| 20260507024003 | 20 | 288 | 0.0 | 8.0 | 0.00 | 0.10 | 0.10 | 85 | 1012.5 |
| 20260507023504 | 20 | 314 | 0.0 | 9.7 | 0.00 | 0.10 | 0.10 | 85 | 1012.3 |
| 20260507023020 | 20 | 323 | 0.0 | 9.7 | 0.00 | 0.10 | 0.10 | 84 | 1012.2 |
| 20260507022504 | 20 | 17 | 0.0 | 11.3 | 0.00 | 0.10 | 0.10 | 85 | 1012.2 |
| 20260507022009 | 20 | 347 | 0.0 | 11.3 | 0.00 | 0.10 | 0.10 | 84 | 1012.0 |
| 20260507021522 | 20 | 319 | 1.6 | 8.0 | 0.00 | 0.10 | 0.10 | 85 | 1011.9 |
| 20260507021009 | 20 | 309 | 0.0 | 8.0 | 0.00 | 0.10 | 0.10 | 85 | 1011.7 |
| 20260507020508 | 20 | 301 | 0.0 | 6.4 | 0.00 | 0.10 | 0.10 | 85 | 1011.8 |
| 20260507020024 | 20 | 20 | 0.0 | 6.4 | 0.00 | 0.10 | 0.10 | 85 | 1011.7 |
| 20260507015506 | 20 | 322 | 0.0 | 4.8 | 0.00 | 0.10 | 0.10 | 85 | 1011.5 |
| 20260507015003 | 20 | 302 | 0.0 | 4.8 | 0.00 | 0.10 | 0.10 | 85 | 1011.5 |
| 20260507014515 | 20 | 316 | 0.0 | 4.8 | 0.00 | 0.10 | 0.10 | 85 | 1011.5 |
| 20260507014007 | 20 | 359 | 0.0 | 4.8 | 0.00 | 0.10 | 0.10 | 85 | 1011.4 |
| 20260507013506 | 20 | 317 | 0.0 | 4.8 | 0.00 | 0.10 | 0.10 | 84 | 1011.2 |
| 20260507013020 | 21 | 309 | 0.0 | 8.0 | 0.00 | 0.10 | 0.10 | 84 | 1011.2 |
| 20260507012508 | 21 | 316 | 0.0 | 8.0 | 0.00 | 0.10 | 0.10 | 84 | 1011.2 |
| 20260507012006 | 21 | 347 | 0.0 | 6.4 | 0.00 | 0.10 | 0.10 | 84 | 1011.1 |
| 20260507011519 | 21 | 338 | 1.6 | 6.4 | 0.00 | 0.10 | 0.10 | 84 | 1010.9 |
| 20260507011007 | 21 | 330 | 1.6 | 9.7 | 0.00 | 0.10 | 0.10 | 83 | 1010.8 |
| 20260507010507 | 21 | 316 | 1.6 | 9.7 | 0.00 | 0.10 | 0.10 | 83 | 1010.9 |
| 20260507010026 | 21 | 323 | 1.6 | 9.7 | 0.00 | 0.10 | 0.10 | 83 | 1011.0 |
| 20260507005508 | 21 | 20 | 3.2 | 11.3 | 0.00 | 0.10 | 0.10 | 83 | 1010.9 |
| 20260507005011 | 21 | 326 | 1.6 | 11.3 | 0.00 | 0.10 | 0.10 | 83 | 1010.7 |
| 20260507004521 | 21 | 337 | 3.2 | 9.7 | 0.00 | 0.10 | 0.10 | 83 | 1010.7 |
| 20260507004008 | 21 | 354 | 4.8 | 9.7 | 0.00 | 0.10 | 0.10 | 83 | 1010.5 |
| 20260507003508 | 22 | 319 | 1.6 | 9.7 | 0.00 | 0.10 | 0.10 | 83 | 1010.6 |
| 20260507003028 | 22 | 297 | 3.2 | 9.7 | 0.00 | 0.10 | 0.10 | 83 | 1010.4 |
| 20260507002505 | 22 | 321 | 1.6 | 9.7 | 0.00 | 0.10 | 0.10 | 83 | 1010.3 |
| 20260507002011 | 22 | 340 | 0.0 | 11.3 | 0.00 | 0.10 | 0.10 | 84 | 1010.2 |
| 20260507001534 | 22 | 319 | 1.6 | 11.3 | 0.00 | 0.10 | 0.10 | 83 | 1010.1 |
| 20260507001003 | 22 | 23 | 3.2 | 9.7 | 0.00 | 0.10 | 0.10 | 83 | 1010.1 |
| 20260507000503 | 22 | 359 | 1.6 | 9.7 | 0.00 | 0.10 | 0.10 | 83 | 1010.1 |
| 20260507000020 | 23 | 2 | 1.6 | 9.7 | 0.00 | 0.10 | 0.10 | 83 | 1010.1 |
| 20260506235504 | 23 | 344 | 1.6 | 8.0 | 0.00 | 0.10 | 0.10 | 84 | 1009.9 |
| 20260506235002 | 23 | 323 | 1.6 | 11.3 | 0.00 | 0.10 | 0.10 | 84 | 1010.0 |
| 20260506234516 | 23 | 328 | 3.2 | 11.3 | 0.00 | 0.10 | 0.10 | 84 | 1009.9 |
| 20260506234004 | 23 | 319 | 1.6 | 12.9 | 0.00 | 0.10 | 0.10 | 84 | 1010.0 |
| 20260506233507 | 23 | 288 | 1.6 | 12.9 | 0.00 | 0.10 | 0.10 | 84 | 1009.9 |
| 20260506233016 | 23 | 338 | 1.6 | 11.3 | 0.00 | 0.10 | 0.10 | 84 | 1009.8 |
| 20260506232504 | 24 | 348 | 4.8 | 11.3 | 0.00 | 0.10 | 0.10 | 83 | 1009.6 |
| 20260506232005 | 25 | 326 | 4.8 | 11.3 | 0.00 | 0.10 | 0.10 | 83 | 1009.7 |
| 20260506231513 | 25 | 316 | 1.6 | 9.7 | 0.00 | 0.10 | 0.10 | 82 | 1009.7 |
| 20260506231003 | 27 | 293 | 0.0 | 4.8 | 0.00 | 0.10 | 0.10 | 83 | 1009.4 |
| 20260506230505 | 27 | 198 | 0.0 | 0.0 | 0.00 | 0.10 | 0.10 | 87 | 1009.1 |
| 20260506230010 | 27 | 198 | 0.0 | 0.0 | 0.00 | 0.10 | 0.10 | 87 | 1009.2 |
| 20260506225507 | 27 | 198 | 0.0 | 0.0 | 0.00 | 0.10 | 0.10 | 87 | 1009.0 |
| 20260506225004 | 27 | 198 | 0.0 | 0.0 | 0.00 | 0.10 | 0.10 | 86 | 1009.1 |
| 20260506224503 | 27 | 198 | 0.0 | 0.0 | 0.00 | 0.10 | 0.10 | 86 | 1009.1 |
| 20260506224005 | 28 | 198 | 0.0 | 0.0 | 0.00 | 0.10 | 0.10 | 86 | 1009.1 |
| 20260506223502 | 28 | 198 | 0.0 | 0.0 | 0.00 | 0.10 | 0.10 | 84 | 1008.9 |
| 20260506223006 | 28 | 198 | 0.0 | 0.0 | 0.00 | 0.10 | 0.10 | 83 | 1008.9 |
| 20260506222506 | 28 | 198 | 0.0 | 0.0 | 0.00 | 0.10 | 0.10 | 82 | 1008.9 |
| 20260506222008 | 28 | 198 | 0.0 | 0.0 | 0.00 | 0.10 | 0.10 | 82 | 1008.9 |
| 20260506221521 | 28 | 198 | 0.0 | 0.0 | 0.00 | 0.10 | 0.10 | 82 | 1008.8 |
| 20260506221007 | 28 | 198 | 0.0 | 0.0 | 0.00 | 0.10 | 0.10 | 81 | 1008.8 |
| 20260506220503 | 28 | 198 | 0.0 | 0.0 | 0.00 | 0.10 | 0.10 | 80 | 1008.8 |
| 20260506220021 | 28 | 198 | 0.0 | 0.0 | 0.00 | 0.10 | 0.10 | 80 | 1008.9 |
| 20260506215504 | 28 | 198 | 0.0 | 0.0 | 0.00 | 0.10 | 0.10 | 80 | 1008.8 |
| 20260506215007 | 28 | 198 | 0.0 | 0.0 | 0.00 | 0.10 | 0.10 | 81 | 1008.8 |
| 20260506214519 | 28 | 198 | 0.0 | 0.0 | 0.00 | 0.10 | 0.10 | 82 | 1008.9 |
| 20260506214008 | 28 | 198 | 0.0 | 0.0 | 0.00 | 0.10 | 0.10 | 83 | 1009.0 |
| 20260506213507 | 28 | 198 | 0.0 | 0.0 | 0.00 | 0.10 | 0.10 | 81 | 1008.9 |
| 20260506213015 | 28 | 198 | 0.0 | 0.0 | 0.00 | 0.10 | 0.10 | 80 | 1008.9 |
| 20260506212504 | 30 | 198 | 0.0 | 0.0 | 0.00 | 0.10 | 0.10 | 78 | 1008.9 |
| 20260506212011 | 30 | 198 | 0.0 | 0.0 | 0.00 | 0.10 | 0.10 | 78 | 1009.0 |
| 20260506211512 | 30 | 198 | 0.0 | 0.0 | 0.00 | 0.10 | 0.10 | 77 | 1009.0 |
| 20260506211010 | 30 | 198 | 0.0 | 1.6 | 0.00 | 0.10 | 0.10 | 76 | 1008.9 |
| 20260506210507 | 30 | 196 | 0.0 | 1.6 | 0.00 | 0.10 | 0.10 | 76 | 1008.9 |
| 20260506210017 | 30 | 205 | 0.0 | 0.0 | 0.00 | 0.10 | 0.10 | 77 | 1009.0 |
| 20260506205512 | 30 | 205 | 0.0 | 3.2 | 0.00 | 0.10 | 0.10 | 77 | 1009.1 |
| 20260506205006 | 30 | 205 | 0.0 | 3.2 | 0.00 | 0.10 | 0.10 | 79 | 1009.2 |
| 20260506204508 | 30 | 221 | 0.0 | 4.8 | 0.00 | 0.10 | 0.10 | 79 | 1009.1 |
| 20260506204006 | 30 | 239 | 0.0 | 4.8 | 0.00 | 0.10 | 0.10 | 79 | 1009.2 |
| 20260506203509 | 30 | 199 | 0.0 | 3.2 | 0.00 | 0.10 | 0.10 | 80 | 1009.1 |
| 20260506203031 | 30 | 162 | 0.0 | 1.6 | 0.00 | 0.10 | 0.10 | 80 | 1009.2 |
| 20260506202507 | 30 | 265 | 0.0 | 1.6 | 0.00 | 0.10 | 0.10 | 82 | 1009.2 |
| 20260506202009 | 29 | 243 | 0.0 | 1.6 | 0.00 | 0.10 | 0.10 | 82 | 1009.2 |
| 20260506201522 | 28 | 205 | 0.0 | 0.0 | 0.00 | 0.10 | 0.10 | 82 | 1009.4 |
| 20260506201007 | 28 | 200 | 0.0 | 0.0 | 0.00 | 0.10 | 0.10 | 86 | 1009.4 |
| 20260506200515 | 27 | 200 | 0.0 | 0.0 | 0.00 | 0.10 | 0.10 | 87 | 1009.4 |
| 20260506200021 | 27 | 166 | 0.0 | 0.0 | 0.00 | 0.10 | 0.10 | 89 | 1009.6 |
| 20260506195507 | 27 | 167 | 0.0 | 0.0 | 0.00 | 0.10 | 0.10 | 90 | 1009.7 |
| 20260506195010 | 27 | 166 | 0.0 | 0.0 | 0.00 | 0.10 | 0.10 | 89 | 1009.8 |
| 20260506194520 | 26 | 166 | 0.0 | 0.0 | 0.00 | 0.10 | 0.10 | 90 | 1009.8 |
| 20260506194004 | 26 | 166 | 0.0 | 0.0 | 0.08 | 0.10 | 0.10 | 90 | 1009.8 |
| 20260506193506 | 26 | 166 | 0.0 | 0.0 | 0.10 | 0.10 | 0.10 | 89 | 1009.9 |
| 20260506193018 | 26 | 166 | 0.0 | 0.0 | 0.10 | 0.10 | 0.10 | 90 | 1009.9 |
| 20260506192508 | 26 | 166 | 0.0 | 0.0 | 0.10 | 0.10 | 0.10 | 90 | 1009.8 |
| 20260506192011 | 26 | 165 | 0.0 | 0.0 | 0.10 | 0.10 | 0.10 | 91 | 1009.8 |
| 20260506191516 | 26 | 165 | 0.0 | 0.0 | 0.10 | 0.10 | 0.10 | 92 | 1009.8 |
| 20260506191009 | 26 | 165 | 0.0 | 0.0 | 0.10 | 0.10 | 0.10 | 91 | 1009.9 |
| 20260506190506 | 26 | 165 | 0.0 | 0.0 | 0.10 | 0.10 | 0.10 | 91 | 1010.0 |
| 20260506190011 | 26 | 165 | 0.0 | 0.0 | 0.10 | 0.10 | 0.10 | 92 | 1010.0 |
| 20260506185508 | 25 | 165 | 0.0 | 0.0 | 0.10 | 0.10 | 0.10 | 91 | 1010.1 |
| 20260506185007 | 26 | 165 | 0.0 | 0.0 | 0.10 | 0.10 | 0.10 | 89 | 1010.2 |
| 20260506184531 | 26 | 165 | 0.0 | 0.0 | 0.10 | 0.10 | 0.10 | 89 | 1010.2 |
| 20260506184007 | 26 | 164 | 0.0 | 0.0 | 0.03 | 0.03 | 0.03 | 87 | 1010.2 |
| 20260506183504 | 26 | 164 | 0.0 | 0.0 | 0.00 | 0.00 | 0.00 | 86 | 1010.3 |
| 20260506183028 | 26 | 164 | 0.0 | 0.0 | 0.00 | 0.00 | 0.00 | 85 | 1010.4 |
| 20260506182507 | 26 | 164 | 0.0 | 0.0 | 0.00 | 0.00 | 0.00 | 85 | 1010.4 |
| 20260506182006 | 26 | 164 | 0.0 | 0.0 | 0.00 | 0.00 | 0.00 | 85 | 1010.4 |
| 20260506181527 | 27 | 164 | 0.0 | 0.0 | 0.00 | 0.00 | 0.00 | 84 | 1010.5 |
| 20260506181004 | 27 | 164 | 0.0 | 0.0 | 0.00 | 0.00 | 0.00 | 85 | 1010.6 |
| 20260506180509 | 27 | 164 | 0.0 | 0.0 | 0.00 | 0.00 | 0.00 | 84 | 1010.8 |
| 20260506180026 | 27 | 217 | 0.0 | 0.0 | 0.00 | 0.00 | 0.00 | 84 | 1010.9 |
| 20260506175506 | 27 | 217 | 0.0 | 0.0 | 0.00 | 0.00 | 0.00 | 84 | 1011.1 |
| 20260506175012 | 26 | 217 | 0.0 | 0.0 | 0.00 | 0.00 | 0.00 | 85 | 1011.1 |
| 20260506174522 | 26 | 217 | 0.0 | 0.0 | 0.00 | 0.00 | 0.00 | 85 | 1011.3 |
| 20260506174011 | 27 | 217 | 0.0 | 0.0 | 0.00 | 0.00 | 0.00 | 84 | 1011.4 |
| 20260506173508 | 27 | 217 | 0.0 | 0.0 | 0.00 | 0.00 | 0.00 | 85 | 1011.5 |
| 20260506173020 | 26 | 217 | 0.0 | 0.0 | 0.00 | 0.00 | 0.00 | 85 | 1011.5 |
| 20260506172509 | 26 | 217 | 0.0 | 0.0 | 0.00 | 0.00 | 0.00 | 87 | 1011.6 |
| 20260506172009 | 26 | 216 | 0.0 | 0.0 | 0.00 | 0.00 | 0.00 | 86 | 1011.6 |
| 20260506171523 | 26 | 216 | 0.0 | 0.0 | 0.00 | 0.00 | 0.00 | 87 | 1011.6 |
| 20260506171009 | 26 | 216 | 0.0 | 0.0 | 0.00 | 0.00 | 0.00 | 88 | 1011.5 |
| 20260506170511 | 26 | 217 | 0.0 | 0.0 | 0.00 | 0.00 | 0.00 | 86 | 1011.7 |
| 20260506170037 | 26 | 217 | 0.0 | 0.0 | 0.00 | 0.00 | 0.00 | 86 | 1011.7 |
| 20260506165508 | 26 | 216 | 0.0 | 0.0 | 0.00 | 0.00 | 0.00 | 87 | 1011.7 |
| 20260506165006 | 26 | 217 | 0.0 | 0.0 | 0.00 | 0.00 | 0.00 | 87 | 1011.7 |
| 20260506164532 | 26 | 216 | 0.0 | 0.0 | 0.00 | 0.00 | 0.00 | 87 | 1011.6 |
| 20260506164009 | 26 | 216 | 0.0 | 0.0 | 0.00 | 0.00 | 0.00 | 86 | 1011.6 |
| 20260506163512 | 26 | 216 | 0.0 | 0.0 | 0.00 | 0.00 | 0.00 | 84 | 1011.5 |
| 20260506163029 | 26 | 213 | 0.0 | 1.6 | 0.00 | 0.00 | 0.00 | 85 | 1011.4 |
| 20260506162509 | 26 | 213 | 0.0 | 1.6 | 0.00 | 0.00 | 0.00 | 85 | 1011.3 |
| 20260506162013 | 26 | 217 | 0.0 | 1.6 | 0.00 | 0.00 | 0.00 | 85 | 1011.4 |
| 20260506161525 | 26 | 212 | 0.0 | 0.0 | 0.00 | 0.00 | 0.00 | 85 | 1011.2 |
| 20260506161005 | 26 | 212 | 0.0 | 0.0 | 0.00 | 0.00 | 0.00 | 85 | 1011.1 |
| 20260506160509 | 26 | 212 | 0.0 | 0.0 | 0.00 | 0.00 | 0.00 | 85 | 1011.2 |
| 20260506160026 | 26 | 214 | 0.0 | 1.6 | 0.00 | 0.00 | 0.00 | 85 | 1011.2 |
| 20260506155505 | 26 | 214 | 0.0 | 1.6 | 0.00 | 0.00 | 0.00 | 86 | 1011.0 |
| 20260506155011 | 26 | 351 | 0.0 | 1.6 | 0.00 | 0.00 | 0.00 | 87 | 1010.9 |
| 20260506154525 | 26 | 352 | 0.0 | 1.6 | 0.00 | 0.00 | 0.00 | 87 | 1011.0 |
| 20260506154014 | 26 | 341 | 0.0 | 1.6 | 0.00 | 0.00 | 0.00 | 86 | 1010.9 |
| 20260506153514 | 26 | 240 | 0.0 | 0.0 | 0.00 | 0.00 | 0.00 | 87 | 1011.0 |
| 20260506153020 | 26 | 221 | 0.0 | 0.0 | 0.00 | 0.00 | 0.00 | 86 | 1010.9 |
| 20260506152509 | 26 | 221 | 0.0 | 1.6 | 0.00 | 0.00 | 0.00 | 87 | 1010.9 |
| 20260506152011 | 26 | 221 | 0.0 | 1.6 | 0.00 | 0.00 | 0.00 | 87 | 1010.9 |
| 20260506151529 | 26 | 222 | 0.0 | 1.6 | 0.00 | 0.00 | 0.00 | 87 | 1011.0 |
| 20260506151004 | 26 | 223 | 0.0 | 0.0 | 0.00 | 0.00 | 0.00 | 87 | 1011.1 |
| 20260506150507 | 26 | 153 | 0.0 | 0.0 | 0.00 | 0.00 | 0.00 | 87 | 1010.9 |
| 20260506150012 | 25 | 152 | 0.0 | 0.0 | 0.00 | 0.00 | 0.00 | 88 | 1010.8 |
| 20260506145505 | 25 | 153 | 0.0 | 0.0 | 0.00 | 0.00 | 0.00 | 88 | 1010.6 |
| 20260506145010 | 25 | 153 | 0.0 | 0.0 | 0.00 | 0.00 | 0.00 | 88 | 1010.7 |
| 20260506144512 | 25 | 153 | 0.0 | 0.0 | 0.00 | 0.00 | 0.00 | 88 | 1010.6 |
| 20260506144002 | 25 | 210 | 0.0 | 0.0 | 0.00 | 0.00 | 0.00 | 89 | 1010.5 |
| 20260506143505 | 25 | 210 | 0.0 | 0.0 | 0.00 | 0.00 | 0.00 | 89 | 1010.5 |
| 20260506143009 | 25 | 210 | 0.0 | 0.0 | 0.00 | 0.00 | 0.00 | 89 | 1010.4 |
| 20260506142510 | 25 | 199 | 0.0 | 0.0 | 0.00 | 0.00 | 0.00 | 90 | 1010.2 |
| 20260506142006 | 25 | 199 | 0.0 | 0.0 | 0.00 | 0.00 | 0.00 | 90 | 1010.2 |
| 20260506141506 | 25 | 166 | 0.0 | 0.0 | 0.00 | 0.00 | 0.00 | 91 | 1010.2 |
| 20260506141006 | 25 | 166 | 0.0 | 0.0 | 0.00 | 0.00 | 0.00 | 92 | 1010.3 |
| 20260506140503 | 24 | 166 | 0.0 | 0.0 | 0.00 | 0.00 | 0.00 | 91 | 1010.3 |
| 20260506140004 | 24 | 166 | 0.0 | 0.0 | 0.00 | 0.00 | 0.00 | 92 | 1010.4 |
| 20260506135506 | 24 | 166 | 0.0 | 0.0 | 0.00 | 0.00 | 0.00 | 92 | 1010.3 |
| 20260506135002 | 24 | 180 | 0.0 | 0.0 | 0.00 | 0.00 | 0.00 | 92 | 1010.4 |
| 20260506134523 | 24 | 181 | 0.0 | 0.0 | 0.00 | 0.00 | 0.00 | 93 | 1010.6 |
| 20260506134005 | 24 | 181 | 0.0 | 0.0 | 0.00 | 0.00 | 0.00 | 93 | 1010.6 |
| 20260506133503 | 23 | 181 | 0.0 | 0.0 | 0.00 | 0.00 | 0.00 | 93 | 1010.6 |
| 20260506133039 | 23 | 181 | 0.0 | 0.0 | 0.00 | 0.00 | 0.00 | 93 | 1010.5 |
| 20260506132508 | 23 | 181 | 0.0 | 0.0 | 0.00 | 0.00 | 0.00 | 93 | 1010.7 |
| 20260506132007 | 23 | 181 | 0.0 | 0.0 | 0.00 | 0.00 | 0.00 | 93 | 1010.6 |
| 20260506131523 | 23 | 181 | 0.0 | 0.0 | 0.00 | 0.00 | 0.00 | 93 | 1010.6 |
| 20260506131003 | 23 | 181 | 0.0 | 0.0 | 0.00 | 0.00 | 0.00 | 94 | 1010.6 |
| 20260506130507 | 23 | 181 | 0.0 | 0.0 | 0.00 | 0.00 | 0.00 | 94 | 1010.6 |
| 20260506130016 | 23 | 181 | 0.0 | 0.0 | 0.00 | 0.00 | 0.00 | 94 | 1010.6 |
| 20260506125503 | 23 | 181 | 0.0 | 0.0 | 0.00 | 0.00 | 0.00 | 94 | 1010.5 |
| 20260506125007 | 23 | 181 | 0.0 | 0.0 | 0.00 | 0.00 | 0.00 | 94 | 1010.4 |
| 20260506124513 | 23 | 181 | 0.0 | 0.0 | 0.00 | 0.00 | 0.00 | 94 | 1010.4 |
| 20260506124009 | 23 | 181 | 0.0 | 0.0 | 0.00 | 0.00 | 0.00 | 94 | 1010.3 |
| 20260506123507 | 23 | 181 | 0.0 | 0.0 | 0.00 | 0.00 | 0.00 | 94 | 1010.2 |
| 20260506123012 | 23 | 181 | 0.0 | 0.0 | 0.00 | 0.00 | 0.00 | 94 | 1010.2 |
| 20260506122509 | 23 | 181 | 0.0 | 0.0 | 0.00 | 0.00 | 0.00 | 94 | 1010.2 |
| 20260506122006 | 23 | 181 | 0.0 | 0.0 | 0.00 | 0.00 | 0.00 | 94 | 1010.2 |
| 20260506121510 | 23 | 181 | 0.0 | 0.0 | 0.00 | 0.00 | 0.00 | 94 | 1010.2 |
| 20260506121006 | 23 | 181 | 0.0 | 0.0 | 0.00 | 0.00 | 0.00 | 94 | 1010.1 |
| 20260506120503 | 23 | 181 | 0.0 | 0.0 | 0.00 | 0.00 | 0.00 | 94 | 1010.0 |
| 20260506120035 | 23 | 181 | 0.0 | 0.0 | 0.00 | 0.00 | 0.00 | 94 | 1009.9 |
| 20260506115512 | 23 | 181 | 0.0 | 0.0 | 0.00 | 0.00 | 0.00 | 94 | 1010.0 |
| 20260506115004 | 23 | 181 | 0.0 | 0.0 | 0.00 | 0.00 | 0.00 | 94 | 1010.0 |
| 20260506114523 | 23 | 181 | 0.0 | 0.0 | 0.00 | 0.00 | 0.00 | 94 | 1009.8 |
| 20260506114008 | 22 | 181 | 0.0 | 0.0 | 0.00 | 0.00 | 0.00 | 94 | 1009.6 |
| 20260506113504 | 22 | 181 | 0.0 | 0.0 | 0.00 | 0.00 | 0.00 | 94 | 1009.8 |
| 20260506113023 | 22 | 181 | 0.0 | 0.0 | 0.00 | 0.00 | 0.00 | 93 | 1009.9 |
| 20260506112503 | 22 | 181 | 0.0 | 0.0 | 0.00 | 0.00 | 0.00 | 93 | 1009.8 |
| 20260506112010 | 22 | 181 | 0.0 | 0.0 | 0.00 | 0.00 | 0.00 | 93 | 1009.7 |
| 20260506111519 | 22 | 181 | 0.0 | 0.0 | 0.00 | 0.00 | 0.00 | 93 | 1009.7 |
| 20260506111006 | 22 | 181 | 0.0 | 0.0 | 0.00 | 0.00 | 0.00 | 93 | 1009.6 |
| 20260506110509 | 22 | 181 | 0.0 | 0.0 | 0.00 | 0.00 | 0.00 | 93 | 1009.5 |
| 20260506110019 | 23 | 181 | 0.0 | 0.0 | 0.00 | 0.00 | 0.00 | 93 | 1009.4 |
| 20260506105506 | 23 | 181 | 0.0 | 3.2 | 0.00 | 0.00 | 0.00 | 92 | 1009.2 |
| 20260506105008 | 23 | 181 | 0.0 | 3.2 | 0.00 | 0.00 | 0.00 | 92 | 1009.0 |
| 20260506104512 | 23 | 313 | 0.0 | 1.6 | 0.00 | 0.00 | 0.00 | 92 | 1009.0 |
| 20260506104008 | 23 | 69 | 0.0 | 1.6 | 0.00 | 0.00 | 0.00 | 92 | 1008.9 |
| 20260506103507 | 23 | 92 | 0.0 | 1.6 | 0.00 | 0.00 | 0.00 | 92 | 1008.8 |
| 20260506103010 | 23 | 288 | 0.0 | 1.6 | 0.00 | 0.00 | 0.00 | 92 | 1008.8 |
| 20260506102509 | 23 | 114 | 0.0 | 1.6 | 0.00 | 0.00 | 0.00 | 92 | 1008.8 |
| 20260506102009 | 23 | 91 | 0.0 | 6.4 | 0.00 | 0.00 | 0.00 | 92 | 1008.9 |
| 20260506101538 | 23 | 197 | 0.0 | 6.4 | 0.00 | 0.00 | 0.00 | 92 | 1008.8 |
| 20260506101010 | 23 | 70 | 0.0 | 3.2 | 0.00 | 0.00 | 0.00 | 92 | 1008.9 |
| 20260506100503 | 23 | 79 | 0.0 | 4.8 | 0.00 | 0.00 | 0.00 | 92 | 1008.8 |
| 20260506100031 | 23 | 110 | 0.0 | 4.8 | 0.00 | 0.00 | 0.00 | 92 | 1008.9 |
| 20260506095505 | 23 | 180 | 0.0 | 4.8 | 0.00 | 0.00 | 0.00 | 92 | 1008.9 |
| 20260506095004 | 23 | 75 | 0.0 | 6.4 | 0.00 | 0.00 | 0.00 | 92 | 1008.7 |
| 20260506094525 | 23 | 82 | 0.0 | 6.4 | 0.00 | 0.00 | 0.00 | 92 | 1008.6 |
| 20260506094006 | 23 | 131 | 0.0 | 1.6 | 0.00 | 0.00 | 0.00 | 92 | 1008.4 |
| 20260506093512 | 23 | 117 | 0.0 | 3.2 | 0.00 | 0.00 | 0.00 | 92 | 1008.5 |
| 20260506093024 | 23 | 117 | 0.0 | 4.8 | 0.00 | 0.00 | 0.00 | 92 | 1008.4 |
| 20260506092507 | 23 | 151 | 0.0 | 4.8 | 0.00 | 0.00 | 0.00 | 92 | 1008.4 |
| 20260506092010 | 23 | 124 | 0.0 | 6.4 | 0.00 | 0.00 | 0.00 | 92 | 1008.4 |
| 20260506091522 | 23 | 222 | 0.0 | 6.4 | 0.00 | 0.00 | 0.00 | 92 | 1008.4 |
| 20260506091007 | 23 | 105 | 0.0 | 6.4 | 0.00 | 0.00 | 0.00 | 92 | 1008.5 |
| 20260506090509 | 23 | 235 | 0.0 | 6.4 | 0.00 | 0.00 | 0.00 | 92 | 1008.5 |
| 20260506090019 | 23 | 91 | 0.0 | 8.0 | 0.00 | 0.00 | 0.00 | 91 | 1008.4 |
| 20260506085509 | 23 | 81 | 0.0 | 8.0 | 0.00 | 0.00 | 0.00 | 91 | 1008.4 |
| 20260506085006 | 23 | 113 | 0.0 | 3.2 | 0.00 | 0.00 | 0.00 | 91 | 1008.5 |
| 20260506084523 | 23 | 92 | 0.0 | 4.8 | 0.00 | 0.00 | 0.00 | 91 | 1008.4 |
| 20260506084008 | 23 | 116 | 0.0 | 8.0 | 0.00 | 0.00 | 0.00 | 91 | 1008.3 |
| 20260506083507 | 23 | 115 | 0.0 | 8.0 | 0.00 | 0.00 | 0.00 | 91 | 1008.5 |
| 20260506083029 | 23 | 108 | 1.6 | 8.0 | 0.00 | 0.00 | 0.00 | 91 | 1008.5 |
| 20260506082506 | 23 | 262 | 0.0 | 6.4 | 0.00 | 0.00 | 0.00 | 91 | 1008.6 |
| 20260506082009 | 23 | 216 | 0.0 | 6.4 | 0.00 | 0.00 | 0.00 | 91 | 1008.6 |
| 20260506081528 | 23 | 109 | 0.0 | 3.2 | 0.00 | 0.00 | 0.00 | 91 | 1008.6 |
| 20260506081015 | 23 | 111 | 0.0 | 3.2 | 0.00 | 0.00 | 0.00 | 91 | 1008.6 |
| 20260506080504 | 23 | 246 | 0.0 | 1.6 | 0.00 | 0.00 | 0.00 | 91 | 1008.7 |
| 20260506073509 | 24 | 113 | 0.0 | 3.2 | 0.00 | 0.00 | 0.00 | 91 | 1009.1 |
| 20260506073025 | 24 | 212 | 0.0 | 4.8 | 0.00 | 0.00 | 0.00 | 91 | 1009.2 |
| 20260506072504 | 24 | 96 | 0.0 | 4.8 | 0.00 | 0.00 | 0.00 | 91 | 1009.3 |
| 20260506072015 | 24 | 215 | 0.0 | 3.2 | 0.00 | 0.00 | 0.00 | 91 | 1009.4 |
| 20260506071522 | 24 | 117 | 0.0 | 3.2 | 0.00 | 0.00 | 0.00 | 91 | 1009.5 |
| 20260506071012 | 24 | 121 | 0.0 | 3.2 | 0.00 | 0.00 | 0.00 | 91 | 1009.6 |
| 20260506070510 | 24 | 212 | 0.0 | 1.6 | 0.00 | 0.00 | 0.00 | 90 | 1009.5 |
| 20260506062512 | 24 | 83 | 0.0 | 1.6 | 0.00 | 0.00 | 0.00 | 90 | 1009.7 |
| 20260506062008 | 24 | 241 | 0.0 | 3.2 | 0.00 | 0.00 | 0.00 | 90 | 1009.7 |
| 20260506061510 | 24 | 266 | 0.0 | 3.2 | 0.00 | 0.00 | 0.00 | 90 | 1009.7 |
| 20260506061004 | 24 | 207 | 0.0 | 8.0 | 0.00 | 0.00 | 0.00 | 90 | 1009.7 |
| 20260506060501 | 24 | 126 | 0.0 | 8.0 | 0.00 | 0.00 | 0.00 | 90 | 1009.8 |
| 20260506051003 | 24 | 111 | 0.0 | 9.7 | 0.00 | 0.00 | 0.00 | 88 | 1009.4 |
| 20260506050503 | 24 | 94 | 0.0 | 9.7 | 0.00 | 0.00 | 0.00 | 88 | 1009.4 |